Location: Krakow
(50.0830°N, 19.9170°E)
Time: 03:48:35
(UTC+02:00)

Tiros 1 - Pass Details

Date: 08 February 2023
Orbit: 627 x 662 km, 48.4° (Epoch: 25 March)

Event Time Altitude Azimuth Distance (km) Brightness Sun altitude
Rises 03:42:15 0° 281° (W) 2,924 - -32.5°
Reaches altitude 10° 03:44:46 10° 271° (W) 2,019 - -32.1°
Maximum altitude 03:48:50 30° 210° (SSW) 1,132 - -31.5°
Drops below altitude 10° 03:52:55 10° 149° (SSE) 2,030 - -30.9°
Exits shadow 03:53:01 10° 149° (SSE) 2,061 9.9 -30.9°
Sets 03:55:27 0° 139° (SE) 2,944 10.9 -30.5°
